Skip Page Navigation
NASA JPL Caltech
NASA Logo - Jet Propulsion Laboratory + View the NASA Portal
+ Center for Near-Earth Object Studies
JPL Home Earth Solar System Stars & Galaxies Technology
JPL Solar System Dynamics
BODIES ORBITS EPHEMERIDES TOOLS PHYSICAL DATA DISCOVERY FAQ SITE MAP
JPL Small-Body Database Browser
Search: [ help ]  
43631 (2002 CS236)
Classification: Main-belt Asteroid          SPK-ID: 2043631
Ephemeris | Orbit Diagram | Orbital Elements | Mission Design | Physical Parameters | Discovery Circumstances | Close-Approach Data ]

[ show orbit diagram ]
Orbital Elements at Epoch 2459200.5 (2020-Dec-17.0) TDB
Reference: JPL 28 (heliocentric ecliptic J2000)
 Element Value Uncertainty (1-sigma)   Units 
e .06087465415867794 3.6637e-08  
a 3.022246826397279 2.0176e-08 au
q 2.838268596058183 1.0633e-07 au
i 10.44477255828971 3.4467e-06 deg
node 147.1362027376025 2.1061e-05 deg
peri 75.9419606200189 3.8777e-05 deg
M 178.3780133974803 3.5361e-05 deg
tp 2458249.605918537103
(2018-May-11.10591854)
0.00018395 TDB
period 1919.081072866565
5.25
1.9217e-05
5.261e-08
d
yr
n .1875897819482226 1.8784e-09 deg/d
Q 3.206225056736376 2.1404e-08 au
  Orbit Determination Parameters
   # obs. used (total)      1230  
   data-arc span      8253 days (22.60 yr)  
   first obs. used      1998-08-02  
   last obs. used      2021-03-07  
   planetary ephem.      DE441  
   SB-pert. ephem.      SB441-N16  
   condition code      0  
   norm. resid. RMS      .51876  
   source      ORB  
   producer      Otto Matic  
   solution date      2021-Apr-13 09:21:21  

Additional Information
 Earth MOID = 1.85302 au 
 Jupiter MOID = 1.82543 au 
 T_jup = 3.218 
[ show covariance matrix ]

Ephemeris | Orbit Diagram | Orbital Elements | Mission Design | Physical Parameters | Discovery Circumstances | Close-Approach Data ]

Physical Parameter Table
Parameter Symbol Value Units Sigma Reference Notes
absolute magnitude H 14.16   n/a E2021B10  

43631 (2002 CS236)          Discovered 2002-Feb-08 by LINEAR at Socorro
Reference: 20020624/Numbers.arcLast Updated: 2004-04-19

[ show close-approach data ]
Alternate Designations
 2002 CS236 = 1999 TR245 
Ephemeris | Orbit Diagram | Orbital Elements | Mission Design | Physical Parameters | Discovery Circumstances | Close-Approach Data ]
ABOUT SSD CREDITS/AWARDS PRIVACY/COPYRIGHT GLOSSARY LINKS
FirstGov 2021-Jun-24 19:51 UT
(server date/time)  
NASA Home Page
Site Manager:   Ryan S. Park
Webmaster  Alan B. Chamberlin